Tracking 18186 objects as of 30-March-2017
HD Live streaming from Space Station
objects crossing your sky now

FENGYUN 2B AKM

Track FENGYUN 2B AKM now!


NORAD ID: 26460
Int'l Code: 2000-032C
Perigee: 35,707.2 km
Apogee: 35,926.0 km
Inclination: 12.3 °
Period: 1,437.3 minutes
Semi major axis: 42187 km
RCS: 7.9432 m2 (large)
Launch date: June 25, 2000
Source: People's Republic of China (PRC)
Launch site: Xichang Space Center, China (XSC)

Note: This is a ROCKET BODY
Your satellite tracking list
Your tracking list is empty





NASA's NSSDC Master Catalog

Two Line Element Set (TLE):
1 26460U 00032C   17087.64321401 -.00000214 +00000-0 +00000-0 0  9995
2 26460 012.3238 033.8433 0025933 305.5137 054.2366 01.00190202088433
Source of the keplerian elements: AFSPC